Location: Avully
(45.9633°N, 6.0228°E)
Time: 04:56:30
(UTC+00:00)

Lacrosse 5 rocket - Pass Details

Date: 23 May 2024
Orbit: 445 x 572 km, 57.0° (Epoch: 19 June)

Event Time Altitude Azimuth Distance (km) Brightness Sun altitude
Rises 03:00:06 0° 296° (WNW) 2,694 4.6 -8.5°
Reaches altitude 10° 03:03:04 10° 274° (W) 1,770 3.5 -8.1°
Maximum altitude 03:05:27 15° 238° (WSW) 1,433 2.8 -7.8°
Drops below altitude 10° 03:07:46 10° 201° (SSW) 1,714 3.3 -7.5°
Sets 03:10:35 0° 178° (S) 2,561 4.4 -7.1°
